FW5426 Weather Reports


Display with metric or nautical units.
time (UTC)temp
F
wind
direction
speed
MPH
gust
MPH
rain 1hr
in
rain 24hr
in
rain mn
in
humidity
%
barometer
mb
20260901192546 90 211 4.0 11.0 0.00 0.00 0.00 28 1020.2
20260901191831 91 184 3.0 10.0 0.00 0.00 0.00 28 1020.4
20260901191330 91 174 3.0 8.0 0.00 0.00 0.00 29 1020.4
20260901190831 89 119 2.0 9.0 0.00 0.00 0.00 29 1020.5
20260901190331 89 121 2.0 9.0 0.00 0.00 0.00 29 1020.6
20260901185831 88 97 2.0 9.0 0.00 0.00 0.00 30 1020.6
20260901185330 88 15 2.0 7.0 0.00 0.00 0.00 30 1020.7
20260901184830 89 78 3.0 10.0 0.00 0.00 0.00 29 1020.8
20260901184331 89 236 5.0 11.0 0.00 0.00 0.00 29 1020.8
20260901183829 89 152 5.0 12.0 0.00 0.00 0.00 29 1020.7
20260901183329 89 156 4.0 12.0 0.00 0.00 0.00 30 1020.6
20260901182829 88 62 3.0 9.0 0.00 0.00 0.00 30 1020.8
20260901182547 88 153 3.0 10.0 0.00 0.00 0.00 31 1020.9
20260901181829 88 237 4.0 10.0 0.00 0.00 0.00 30 1021.0
20260901181548 88 283 5.0 10.0 0.00 0.00 0.00 31 1020.9
20260901180818 88 232 5.0 10.0 0.00 0.00 0.00 31 1020.9
20260901180535 87 161 4.0 10.0 0.00 0.00 0.00 31 1021.0
20260901175806 88 150 1.0 9.0 0.00 0.00 0.00 31 1021.0
20260901175306 88 207 2.0 8.0 0.00 0.00 0.00 32 1021.1
20260901174806 88 260 3.0 8.0 0.00 0.00 0.00 31 1021.4
20260901174306 88 153 1.0 7.0 0.00 0.00 0.00 31 1021.4
20260901173806 87 126 0.0 3.0 0.00 0.00 0.00 33 1021.4
20260901173307 86 279 0.0 4.0 0.00 0.00 0.00 33 1021.4
20260901172804 86 238 1.0 6.0 0.00 0.00 0.00 33 1021.5
20260901172305 85 22 1.0 6.0 0.00 0.00 0.00 34 1021.6
20260901171803 85 97 0.0 3.0 0.00 0.00 0.00 34 1021.5
20260901171745 85 67 1.0 4.0 0.00 0.00 0.00 34 1021.7
20260901170802 85 101 2.0 5.0 0.00 0.00 0.00 34 1021.7
20260901170302 85 185 2.0 5.0 0.00 0.00 0.00 34 1021.8
20260901165801 85 218 1.0 5.0 0.00 0.00 0.00 34 1021.7
20260901165306 85 130 1.0 3.0 0.00 0.00 0.00 34 1021.7
20260901164801 84 127 0.0 3.0 0.00 0.00 0.00 35 1021.6
20260901164301 83 59 0.0 3.0 0.00 0.00 0.00 36 1021.6
20260901164026 83 61 0.0 2.0 0.00 0.00 0.00 37 1021.6
20260901163301 82 321 0.0 3.0 0.00 0.00 0.00 38 1021.6
20260901162800 82 11 0.0 3.0 0.00 0.00 0.00 37 1021.5
20260901162254 82 75 0.0 3.0 0.00 0.00 0.00 38 1021.5
20260901161748 82 101 0.0 3.0 0.00 0.00 0.00 38 1021.5
20260901161241 81 336 0.0 2.0 0.00 0.00 0.00 39 1021.5
20260901160738 81 74 0.0 2.0 0.00 0.00 0.00 39 1021.5
20260901160237 82 25 0.0 1.0 0.00 0.00 0.00 40 1021.5
20260901155957 81 132 0.0 0.0 0.00 0.00 0.00 40 1021.4
20260901155458 81 269 0.0 0.0 0.00 0.00 0.00 41 1021.4
20260901154739 80 228 0.0 0.0 0.00 0.00 0.00 41 1021.4
20260901154238 80 190 1.0 4.0 0.00 0.00 0.00 41 1021.3
20260901153736 80 194 1.0 4.0 0.00 0.00 0.00 41 1021.4
20260901153235 80 177 1.0 4.0 0.00 0.00 0.00 42 1021.3
20260901152734 80 237 1.0 4.0 0.00 0.00 0.00 42 1021.5
20260901152500 80 169 1.0 6.0 0.00 0.00 0.00 42 1021.4
20260901151734 80 167 1.0 6.0 0.00 0.00 0.00 42 1021.3
20260901151233 80 153 1.0 4.0 0.00 0.00 0.00 42 1021.3
20260901150734 80 242 1.0 4.0 0.00 0.00 0.00 42 1021.3
20260901150234 79 159 1.0 4.0 0.00 0.00 0.00 43 1021.3
20260901150001 79 122 1.0 4.0 0.00 0.00 0.00 45 1021.3
20260901145231 79 175 2.0 7.0 0.00 0.00 0.00 45 1021.3
20260901144731 79 152 3.0 7.0 0.00 0.00 0.00 45 1021.3
20260901144456 78 127 3.0 7.0 0.00 0.00 0.00 46 1021.1
20260901143730 78 114 4.0 8.0 0.00 0.00 0.00 46 1021.1
20260901143230 78 128 4.0 9.0 0.00 0.00 0.00 47 1021.1
20260901142730 77 160 4.0 9.0 0.00 0.00 0.00 46 1021.1
20260901142229 77 115 4.0 9.0 0.00 0.00 0.00 48 1021.1
20260901141730 77 122 2.0 6.0 0.00 0.00 0.00 48 1021.1
20260901141229 77 121 2.0 6.0 0.00 0.00 0.00 47 1021.0
20260901140730 77 98 2.0 6.0 0.00 0.00 0.00 47 1020.9
20260901140454 77 121 1.0 6.0 0.00 0.00 0.00 46 1020.9
20260901135730 76 113 1.0 3.0 0.00 0.00 0.00 45 1020.8
20260901135230 76 133 0.0 3.0 0.00 0.00 0.00 45 1020.7
20260901134729 76 173 0.0 0.0 0.00 0.00 0.00 45 1020.7
20260901134229 76 194 0.0 0.0 0.00 0.00 0.00 46 1020.7
20260901133730 76 171 0.0 0.0 0.00 0.00 0.00 46 1020.6
20260901133229 76 165 0.0 0.0 0.00 0.00 0.00 46 1020.5
20260901132730 76 167 0.0 0.0 0.00 0.00 0.00 47 1020.6
20260901132229 76 171 0.0 2.0 0.00 0.00 0.00 47 1020.6
20260901131730 75 97 1.0 3.0 0.00 0.00 0.00 47 1020.7
20260901131229 75 107 2.0 4.0 0.00 0.00 0.00 47 1020.6
20260901130730 75 108 2.0 4.0 0.00 0.00 0.00 49 1020.6
20260901130229 75 128 2.0 4.0 0.00 0.00 0.00 50 1020.5
20260901125730 75 140 2.0 5.0 0.00 0.00 0.00 50 1020.4
20260901125230 75 132 3.0 6.0 0.00 0.00 0.00 49 1020.4
20260901124729 75 144 3.0 7.0 0.00 0.00 0.00 49 1020.4
20260901124230 75 119 3.0 7.0 0.00 0.00 0.00 48 1020.2
20260901123728 75 130 2.0 5.0 0.00 0.00 0.00 47 1020.2
20260901123229 75 146 2.0 6.0 0.00 0.00 0.00 47 1020.1
20260901122952 76 128 3.0 7.0 0.00 0.00 0.00 46 1020.0
20260901122229 76 101 3.0 8.0 0.00 0.00 0.00 46 1019.9
20260901121729 76 108 2.0 8.0 0.00 0.00 0.00 46 1019.8
20260901121228 76 118 0.0 5.0 0.00 0.00 0.00 45 1019.8
20260901120729 76 348 0.0 1.0 0.00 0.00 0.00 44 1019.6
20260901120452 77 200 0.0 1.0 0.00 0.00 0.00 44 1019.5
20260901115730 77 244 1.0 4.0 0.00 0.00 0.00 43 1019.5
20260901115229 77 244 2.0 6.0 0.00 0.00 0.00 43 1019.5
20260901114729 77 306 2.0 6.0 0.00 0.00 0.00 43 1019.5
20260901114230 77 340 2.0 5.0 0.00 0.00 0.00 43 1019.5
20260901113729 77 344 3.0 8.0 0.00 0.00 0.00 43 1019.3
20260901113230 77 296 4.0 9.0 0.00 0.00 0.00 43 1019.3
20260901112729 77 296 3.0 9.0 0.00 0.00 0.00 42 1019.3
20260901112456 77 330 2.0 5.0 0.00 0.00 0.00 42 1019.3
20260901111728 77 49 2.0 5.0 0.00 0.00 0.00 42 1019.3
20260901111231 78 38 1.0 3.0 0.00 0.00 0.00 42 1019.3
20260901110729 78 17 1.0 4.0 0.00 0.00 0.00 42 1019.3
20260901110229 78 29 2.0 5.0 0.00 0.00 0.00 42 1019.3
20260901105725 78 13 2.0 5.0 0.00 0.00 0.00 41 1019.3
20260901105219 78 355 2.0 7.0 0.00 0.00 0.00 41 1019.3
20260901104719 78 34 2.0 7.0 0.00 0.00 0.00 41 1019.3
20260901104219 78 22 1.0 5.0 0.00 0.00 0.00 41 1019.3
20260901103719 77 338 1.0 5.0 0.00 0.00 0.00 42 1019.3
20260901103220 76 298 0.0 4.0 0.00 0.00 0.00 44 1019.3
20260901102720 76 67 1.0 3.0 0.00 0.00 0.00 47 1019.3
20260901102440 76 67 1.0 3.0 0.00 0.00 0.00 48 1019.3
20260901101717 76 91 1.0 4.0 0.00 0.00 0.00 49 1019.3
20260901101217 76 90 2.0 4.0 0.00 0.00 0.00 50 1019.5
20260901100716 76 96 1.0 3.0 0.00 0.00 0.00 49 1019.5
20260901100215 76 90 1.0 3.0 0.00 0.00 0.00 48 1019.5
20260901095711 77 0 0.0 2.0 0.00 0.00 0.00 47 1019.6
20260901095652 77 0 0.0 2.0 0.00 0.00 0.00 45 1019.6
20260901094712 77 339 1.0 6.0 0.00 0.00 0.00 44 1019.6
20260901094210 77 339 2.0 6.0 0.00 0.00 0.00 43 1019.6
20260901093937 77 335 3.0 10.0 0.00 0.00 0.00 43 1019.7
20260901093430 78 333 5.0 10.0 0.00 0.00 0.00 43 1019.7
20260901092710 78 309 4.0 11.0 0.00 0.00 0.00 43 1019.8
20260901092208 77 347 3.0 11.0 0.00 0.00 0.00 43 1019.7
20260901091706 77 355 2.0 10.0 0.00 0.00 0.00 45 1019.7
20260901091205 76 17 1.0 5.0 0.00 0.00 0.00 48 1019.7
20260901090707 76 108 0.0 0.0 0.00 0.00 0.00 52 1019.8
20260901090204 76 110 0.0 1.0 0.00 0.00 0.00 52 1019.8
20260901085705 76 131 0.0 2.0 0.00 0.00 0.00 51 1019.8
20260901085204 76 131 1.0 2.0 0.00 0.00 0.00 51 1019.8
20260901084706 76 132 1.0 2.0 0.00 0.00 0.00 51 1019.8
20260901084203 77 121 0.0 2.0 0.00 0.00 0.00 51 1019.8
20260901083929 77 117 0.0 2.0 0.00 0.00 0.00 50 1019.7
20260901083203 77 121 1.0 3.0 0.00 0.00 0.00 50 1019.6
20260901082931 77 111 1.0 3.0 0.00 0.00 0.00 50 1019.7
20260901082644 77 115 1.0 2.0 0.00 0.00 0.00 49 1019.8
20260901081929 77 132 0.0 2.0 0.00 0.00 0.00 49 1019.8
20260901081202 77 103 0.0 1.0 0.00 0.00 0.00 49 1019.8
20260901080703 77 98 0.0 1.0 0.00 0.00 0.00 49 1019.8
20260901080202 78 92 0.0 2.0 0.00 0.00 0.00 49 1019.9
20260901075701 78 165 0.0 2.0 0.00 0.00 0.00 48 1019.9
20260901075202 78 169 0.0 2.0 0.00 0.00 0.00 48 1020.0
20260901074701 78 169 1.0 6.0 0.00 0.00 0.00 48 1020.2
20260901074426 78 169 3.0 8.0 0.00 0.00 0.00 48 1020.2
20260901073701 78 128 5.0 11.0 0.00 0.00 0.00 48 1020.2
20260901073201 78 165 7.0 12.0 0.00 0.00 0.00 47 1020.4
20260901072701 78 146 7.0 12.0 0.00 0.00 0.00 47 1020.4
20260901072202 79 153 7.0 14.0 0.00 0.00 0.00 47 1020.5
20260901071701 79 186 7.0 16.0 0.00 0.00 0.00 46 1020.5
20260901071421 80 154 6.0 16.0 0.00 0.00 0.00 44 1020.6
20260901070701 80 188 4.0 11.0 0.00 0.00 0.00 42 1020.6
20260901070201 80 191 3.0 6.0 0.00 0.00 0.00 42 1020.6
20260901065701 80 187 3.0 8.0 0.00 0.00 0.00 42 1020.5
20260901065202 80 292 3.0 8.0 0.00 0.00 0.00 43 1020.5
20260901064702 80 311 4.0 13.0 0.00 0.00 0.00 43 1020.2
20260901064201 80 300 6.0 15.0 0.00 0.00 0.00 43 1020.2
20260901063701 80 315 8.0 15.0 0.00 0.00 0.00 43 1020.1
20260901063200 80 327 8.0 15.0 0.00 0.00 0.00 43 1020.0
20260901062701 80 298 7.0 14.0 0.00 0.00 0.00 43 1019.9
20260901062202 80 309 8.0 16.0 0.00 0.00 0.00 43 1019.9
20260901061701 80 348 9.0 20.0 0.00 0.00 0.00 43 1020.0
20260901061202 80 309 10.0 20.0 0.00 0.00 0.00 43 1019.8
20260901060702 80 342 11.0 20.0 0.00 0.00 0.00 43 1019.8
20260901060202 80 343 9.0 17.0 0.00 0.00 0.00 43 1019.8
20260901055700 80 300 7.0 17.0 0.00 0.00 0.00 42 1019.9
20260901055420 81 321 5.0 15.0 0.00 0.00 0.00 41 1020.1
20260901054701 81 351 3.0 12.0 0.00 0.00 0.00 40 1020.0
20260901054201 81 46 3.0 6.0 0.00 0.00 0.00 40 1020.1
20260901053703 81 340 2.0 10.0 0.00 0.00 0.00 40 1020.1
20260901053201 81 294 3.0 10.0 0.00 0.00 0.00 39 1020.0
20260901052702 81 257 3.0 12.0 0.00 0.00 0.00 39 1019.9
20260901052202 82 299 3.0 12.0 0.00 0.00 0.00 38 1019.8
20260901051702 82 301 1.0 8.0 0.00 0.00 0.00 39 1019.8
20260901051429 82 313 3.0 11.0 0.00 0.00 0.00 38 1019.8
20260901050701 82 315 5.0 11.0 0.00 0.00 0.00 37 1019.6
20260901050201 82 329 6.0 14.0 0.00 0.00 0.00 36 1019.5
20260901045701 82 334 5.0 14.0 0.00 0.00 0.00 36 1019.2
20260901045201 82 48 4.0 10.0 0.00 0.00 0.00 37 1019.1
20260901044701 81 175 5.0 19.0 0.00 0.00 0.00 37 1019.0
20260901044201 81 349 6.0 19.0 0.00 0.00 0.00 37 1018.9
20260901043702 81 311 4.0 17.0 0.00 0.00 0.00 38 1018.8
20260901043201 81 41 5.0 17.0 0.00 0.00 0.00 38 1018.7
20260901042702 81 69 6.0 16.0 0.00 0.00 0.00 39 1018.9
20260901042201 80 10 7.0 16.0 0.00 0.00 0.00 38 1018.4
20260901041700 80 274 8.0 21.0 0.00 0.00 0.00 39 1018.3
20260901041201 80 281 9.0 21.0 0.00 0.00 0.00 40 1018.1
20260901040701 80 302 9.0 17.0 0.00 0.00 0.00 41 1018.2
20260901040201 80 301 11.0 22.0 0.00 0.00 0.00 40 1018.2
20260901035701 80 323 12.0 26.0 0.00 0.00 0.00 42 1018.0
20260901035201 81 283 11.0 26.0 0.00 0.00 0.00 41 1017.9
20260901034701 82 274 10.0 20.0 0.00 0.00 0.00 38 1017.7
20260901034202 81 275 10.0 28.0 0.00 0.00 0.00 40 1017.4
20260901033702 82 317 9.0 28.0 0.00 0.00 0.00 40 1017.4
20260901033202 82 325 9.0 21.0 0.00 0.00 0.00 38 1017.2
20260901032921 81 300 10.0 26.0 0.00 0.00 0.00 40 1017.1
20260901032202 81 293 11.0 26.0 0.00 0.00 0.00 40 1017.1
20260901031701 81 283 12.0 22.0 0.00 0.00 0.00 40 1017.1
20260901031202 81 294 15.0 26.0 0.00 0.00 0.00 40 1017.0
20260901030701 82 294 15.0 27.0 0.00 0.00 0.00 39 1016.7
20260901030201 82 285 14.0 29.0 0.00 0.00 0.00 40 1016.7
20260901025925 82 329 16.0 30.0 0.00 0.00 0.00 40 1016.4
20260901025201 82 261 18.0 31.0 0.00 0.00 0.00 41 1016.4
20260901024701 81 301 18.0 33.0 0.00 0.00 0.00 42 1016.3
20260901024201 81 276 18.0 33.0 0.00 0.00 0.00 44 1016.2
20260901023922 82 220 20.0 38.0 0.00 0.00 0.00 40 1016.2
20260901023918 82 269 19.0 38.0 0.00 0.00 0.00 40 1016.0
20260901023909 81 279 18.0 39.0 0.00 0.00 0.00 43 1016.3
20260901023858 82 294 19.0 39.0 0.00 0.00 0.00 42 1016.0
20260901023848 82 325 19.0 33.0 0.00 0.00 0.00 41 1016.0
20260901021917 82 220 20.0 38.0 0.00 0.00 0.00 40 1016.2
20260901021202 82 250 21.0 40.0 0.00 0.00 0.00 41 1015.8
20260901020700 81 263 22.0 40.0 0.00 0.00 0.00 43 1016.0
20260901020426 82 277 21.0 36.0 0.00 0.00 0.00 43 1016.1
20260901015702 82 240 20.0 36.0 0.00 0.00 0.00 42 1016.1
20260901015425 83 269 19.0 36.0 0.00 0.00 0.00 42 1015.9
20260901014701 84 223 19.0 33.0 0.00 0.00 0.00 40 1015.9
20260901014201 85 250 20.0 34.0 0.00 0.00 0.00 38 1015.8
20260901013701 86 207 17.0 34.0 0.00 0.00 0.00 35 1015.8
20260901013159 91 271 10.0 24.0 0.00 0.00 0.00 29 1015.3
20260901012652 95 234 6.0 10.0 0.00 0.00 0.00 20 1014.6
20260901012147 95 222 6.0 10.0 0.00 0.00 0.00 20 1014.4
20260901011641 95 192 6.0 10.0 0.00 0.00 0.00 20 1014.5
20260901011135 95 230 5.0 9.0 0.00 0.00 0.00 20 1014.4
20260901010635 95 202 4.0 9.0 0.00 0.00 0.00 19 1014.3
20260901010135 95 177 4.0 11.0 0.00 0.00 0.00 19 1014.2
20260901005635 95 180 4.0 11.0 0.00 0.00 0.00 19 1014.2
20260901005135 95 186 4.0 7.0 0.00 0.00 0.00 19 1014.2
20260901004635 96 173 3.0 8.0 0.00 0.00 0.00 18 1014.3
20260901004134 96 202 3.0 8.0 0.00 0.00 0.00 17 1014.3
20260901003633 97 209 2.0 6.0 0.00 0.00 0.00 17 1014.3
20260901003133 97 203 2.0 6.0 0.00 0.00 0.00 16 1014.4
20260901002633 98 292 1.0 7.0 0.00 0.00 0.00 17 1014.4
20260901002133 98 216 2.0 7.0 0.00 0.00 0.00 17 1014.4
20260901001633 98 275 3.0 7.0 0.00 0.00 0.00 17 1014.5
20260901001133 98 248 4.0 8.0 0.00 0.00 0.00 17 1014.4
20260901000633 98 165 5.0 11.0 0.00 0.00 0.00 17 1014.4
20260901000615 98 193 3.0 11.0 0.00 0.00 0.00 17 1014.5
20260831235633 98 229 2.0 5.0 0.00 0.00 0.00 15 1014.5
20260831235132 97 270 2.0 5.0 0.00 0.00 0.00 15 1014.4
20260831234631 97 285 3.0 7.0 0.00 0.00 0.00 15 1014.4
20260831234131 97 198 5.0 11.0 0.00 0.00 0.00 15 1014.4
20260831233632 97 141 6.0 11.0 0.00 0.00 0.00 15 1014.4
20260831233131 98 206 7.0 13.0 0.00 0.00 0.00 14 1014.3
20260831232631 99 235 5.0 13.0 0.00 0.00 0.00 15 1014.2
20260831232131 100 222 3.0 8.0 0.00 0.00 0.00 15 1014.2
20260831231630 100 271 1.0 3.0 0.00 0.00 0.00 13 1014.3
20260831231335 99 163 5.0 12.0 0.00 0.00 0.00 12 1014.4
20260831231328 99 355 3.0 10.0 0.00 0.00 0.00 13 1014.3
20260831230130 99 111 5.0 12.0 0.00 0.00 0.00 15 1014.4
20260831225857 99 205 4.0 11.0 0.00 0.00 0.00 16 1014.4
20260831225130 98 160 3.0 10.0 0.00 0.00 0.00 17 1014.5
20260831224631 98 159 4.0 11.0 0.00 0.00 0.00 17 1014.5
20260831224130 98 239 4.0 11.0 0.00 0.00 0.00 17 1014.5
20260831223857 98 124 3.0 8.0 0.00 0.00 0.00 17 1014.7
20260831223130 99 334 2.0 8.0 0.00 0.00 0.00 16 1014.6
20260831222631 99 36 3.0 11.0 0.00 0.00 0.00 15 1014.7
20260831222131 98 9 5.0 11.0 0.00 0.00 0.00 15 1014.9
20260831221854 98 205 6.0 11.0 0.00 0.00 0.00 17 1014.9
20260831221130 99 182 5.0 9.0 0.00 0.00 0.00 17 1015.0
20260831220630 99 129 6.0 11.0 0.00 0.00 0.00 17 1015.1
20260831220131 99 117 5.0 11.0 0.00 0.00 0.00 17 1015.1
20260831215629 99 108 3.0 9.0 0.00 0.00 0.00 19 1015.2
20260831215131 98 340 4.0 8.0 0.00 0.00 0.00 19 1015.3
20260831214850 98 86 5.0 10.0 0.00 0.00 0.00 18 1015.5
20260831214131 99 102 6.0 14.0 0.00 0.00 0.00 18 1015.6
20260831213630 99 159 5.0 14.0 0.00 0.00 0.00 19 1015.6
20260831213129 99 192 4.0 10.0 0.00 0.00 0.00 19 1015.6
20260831212629 98 252 5.0 10.0 0.00 0.00 0.00 19 1015.8
20260831212123 98 165 5.0 10.0 0.00 0.00 0.00 19 1016.0
20260831211616 98 155 6.0 16.0 0.00 0.00 0.00 20 1016.1
20260831211109 98 220 6.0 16.0 0.00 0.00 0.00 20 1016.0
20260831210832 99 277 5.0 11.0 0.00 0.00 0.00 20 1016.2
20260831210104 99 174 4.0 10.0 0.00 0.00 0.00 20 1016.3
20260831205605 98 152 4.0 7.0 0.00 0.00 0.00 21 1016.5
20260831205104 98 197 4.0 8.0 0.00 0.00 0.00 21 1016.5
20260831204605 97 170 3.0 8.0 0.00 0.00 0.00 21 1016.7
20260831204105 97 173 5.0 12.0 0.00 0.00 0.00 22 1016.8
20260831203821 97 198 5.0 12.0 0.00 0.00 0.00 22 1016.8
20260831203102 97 178 5.0 10.0 0.00 0.00 0.00 22 1016.9
20260831202820 97 154 6.0 10.0 0.00 0.00 0.00 22 1017.0
20260831202103 97 192 4.0 10.0 0.00 0.00 0.00 22 1017.0
20260831201604 96 144 3.0 9.0 0.00 0.00 0.00 22 1017.1
20260831201102 96 320 5.0 10.0 0.00 0.00 0.00 22 1017.2
20260831200602 97 144 6.0 15.0 0.00 0.00 0.00 22 1017.3
20260831195600 96 155 5.0 12.0 0.00 0.00 0.00 23 1017.3
20260831195101 96 129 4.0 9.0 0.00 0.00 0.00 22 1017.4
20260831194556 96 105 5.0 12.0 0.00 0.00 0.00 23 1017.6
20260831194050 96 127 6.0 12.0 0.00 0.00 0.00 23 1017.6
20260831193804 96 146 5.0 10.0 0.00 0.00 0.00 23 1017.6
20260831193038 95 149 4.0 9.0 0.00 0.00 0.00 23 1017.6